Temperature
5 5 4 4 3 3 2 1 0 -1 -0 1 1 1 -0 -1 -1 -1 -1 -1 -2 -2 -2 -2 -3 -3 -3 -3 -3 -3 -3 -3 -3 -2 -2 -1 -1 -1
5 4 4 3 3 2 2 1 1 -0 -1 -0 -0 -0 -1 -1 -2 -2 -2 -2 -2 -2 -3 -3 -3 -3 -3 -3 -3 -3 -3 -3 -3 -3 -2 -2 -2 -1
4 4 4 3 2 2 1 1 0 -0 -1 -1 -1 -1 -2 -2 -2 -3 -3 -3 -3 -3 -3 -3 -3 -3 -4 -4 -4 -4 -4 -3 -3 -3 -3 -3 -2 -2
4 3 3 2 2 2 1 0 0 -1 -1 -2 -2 -2 -3 -3 -3 -3 -4 -4 -4 -4 -4 -4 -4 -4 -4 -4 -4 -4 -4 -4 -4 -4 -3 -3 -3 -2
3 3 2 2 2 1 0 -0 -1 -1 -2 -3 -3 -3 -3 -3 -4 -4 -4 -4 -4 -5 -5 -5 -5 -5 -4 -4 -4 -4 -4 -4 -4 -4 -4 -4 -3 -3
3 2 2 1 1 0 -0 -1 -1 -2 -2 -3 -3 -3 -4 -4 -4 -5 -5 -5 -5 -5 -5 -5 -5 -5 -5 -5 -5 -5 -5 -5 -5 -4 -4 -4 -4 -3
2 2 1 1 0 -0 -1 -1 -2 -2 -3 -3 -4 -4 -4 -5 -5 -5 -5 -5 -5 -5 -5 -5 -5 -5 -5 -5 -5 -5 -5 -5 -5 -5 -4 -4 -4 -4
2 1 1 0 -0 -1 -2 -2 -3 -3 -4 -4 -4 -5 -5 -5 -5 -5 -6 -6 -6 -5 -6 -6 -6 -6 -5 -5 -5 -5 -5 -5 -5 -5 -5 -4 -4 -4
1 0 -0 -1 -1 -2 -2 -3 -3 -4 -4 -4 -5 -5 -5 -5 -5 -6 -6 -6 -6 -6 -6 -6 -6 -6 -6 -6 -6 -6 -6 -5 -5 -5 -5 -5 -5 -4
0 -0 -1 -1 -2 -2 -3 -3 -4 -4 -4 -5 -5 -5 -5 -5 -6 -6 -6 -6 -6 -6 -6 -7 -6 -6 -6 -6 -6 -6 -6 -6 -5 -5 -5 -5 -5 -5
-0 -1 -2 -2 -3 -3 -4 -4 -4 -4 -5 -5 -6 -6 -6 -6 -6 -6 -6 -6 -7 -7 -7 -7 -7 -7 -7 -6 -6 -6 -6 -6 -6 -6 -6 -5 -5 -5
-1 -2 -2 -3 -3 -4 -4 -5 -5 -5 -5 -6 -6 -6 -6 -6 -6 -7 -7 -7 -7 -7 -7 -8 -8 -8 -8 -7 -7 -7 -7 -6 -6 -6 -6 -6 -6 -5
-2 -2 -3 -4 -4 -5 -5 -5 -5 -6 -6 -6 -6 -6 -6 -6 -7 -7 -7 -7 -8 -8 -8 -8 -8 -8 -9 -8 -7 -7 -7 -7 -7 -7 -6 -6 -6 -6
-3 -3 -4 -5 -5 -5 -6 -6 -6 -6 -6 -6 -7 -7 -7 -7 -7 -7 -7 -8 -8 -8 -8 -8 -9 -9 -9 -9 -8 -7 -7 -7 -7 -7 -7 -6 -6 -6
-4 -5 -5 -5 -6 -6 -6 -6 -7 -7 -7 -7 -7 -7 -8 -8 -8 -8 -8 -8 -8 -8 -8 -8 -9 -9 -9 -9 -9 -8 -8 -7 -7 -7 -7 -7 -7 -6
-5 -5 -6 -6 -7 -7 -7 -7 -7 -7 -8 -8 -8 -8 -8 -8 -9 -9 -9 -9 -9 -8 -8 -9 -9 -9 -9 -8 -8 -8 -8 -8 -7 -7 -7 -7 -7 -7
-6 -6 -7 -7 -7 -7 -7 -8 -8 -8 -8 -8 -9 -9 -9 -9 -9 -9 -9 -9 -9 -9 -9 -9 -9 -9 -9 -8 -8 -8 -8 -8 -8 -7 -7 -7 -7 -7
-7 -7 -7 -8 -8 -8 -8 -8 -8 -9 -9 -9 -9 -10 -10 -10 -10 -9 -9 -9 -9 -9 -9 -9 -9 -9 -8 -8 -8 -8 -8 -8 -8 -8 -7 -7 -7 -7
-7 -8 -8 -8 -8 -9 -9 -9 -9 -9 -9 -10 -10 -10 -10 -10 -10 -10 -10 -10 -10 -10 -9 -9 -9 -9 -9 -9 -8 -8 -8 -8 -8 -8 -8 -8 -7 -7
-8 -8 -9 -9 -9 -9 -9 -9 -10 -10 -10 -10 -10 -10 -10 -10 -10 -10 -10 -10 -10 -10 -10 -9 -9 -10 -10 -9 -9 -8 -8 -8 -8 -8 -8 -8 -8 -7
-9 -9 -9 -10 -10 -10 -10 -10 -10 -10 -10 -11 -11 -11 -11 -11 -11 -11 -11 -10 -10 -10 -10 -10 -10 -10 -10 -9 -9 -9 -8 -8 -8 -8 -8 -8 -8 -7
-10 -10 -10 -10 -10 -10 -10 -11 -11 -11 -11 -11 -11 -11 -11 -11 -11 -11 -11 -11 -10 -10 -10 -10 -10 -10 -10 -10 -9 -9 -9 -8 -8 -8 -8 -8 -8 -8
-10 -11 -11 -11 -11 -11 -11 -11 -11 -11 -11 -11 -11 -11 -12 -11 -11 -11 -11 -11 -11 -11 -10 -10 -10 -10 -10 -10 -10 -10 -9 -9 -9 -8 -8 -8 -8 -8
Wind_Speed
4 4 4 4 4 4 4 4 5 8 7 5 4 5 10 14 16 15 14 20 24 26 27 27 27 27 28 28 28 28 28 29 29 29 29 28 28 28
4 5 5 4 5 5 5 5 6 7 9 5 5 6 9 13 18 17 16 24 25 26 28 28 28 28 28 29 29 29 29 29 28 28 28 28 28 28
5 6 7 6 5 5 5 5 6 7 12 10 6 6 7 8 11 15 17 17 19 25 28 29 29 29 29 29 29 29 29 29 28 28 28 28 27 27
6 6 7 6 7 6 6 7 7 7 9 13 8 6 8 8 8 8 12 17 17 23 27 28 28 28 29 29 30 29 29 28 27 27 27 27 27 26
6 6 7 7 8 7 7 7 7 8 7 10 11 7 6 7 8 9 10 9 16 20 23 25 26 28 29 30 30 29 28 28 27 26 26 25 25 25
6 7 7 8 9 9 8 8 7 7 7 8 10 9 7 7 7 8 9 7 9 13 18 21 24 27 28 29 29 29 28 27 27 26 24 24 24 24
7 8 9 12 15 13 10 8 7 7 7 8 10 10 9 7 7 7 10 9 8 8 8 10 11 11 15 23 26 27 27 27 26 24 24 23 22 22
8 9 10 12 15 20 21 19 15 10 8 9 10 11 12 9 8 9 9 10 9 4 5 9 8 10 9 13 22 26 26 25 24 23 22 21 20 20
8 8 9 9 13 9 14 18 16 20 19 13 12 12 12 11 10 11 10 11 11 7 7 10 7 9 9 16 24 25 24 22 21 20 19 19 18 18
9 9 9 9 9 10 8 8 9 10 13 11 10 12 12 11 11 12 12 10 9 7 6 9 8 8 10 9 21 22 21 20 19 18 18 17 16 16
9 9 10 9 16 19 12 9 9 9 15 20 22 21 24 24 19 9 7 8 10 7 4 5 6 7 7 8 12 17 19 19 19 18 17 16 15 14
7 8 13 15 18 19 11 9 10 10 10 12 14 16 14 16 20 10 6 8 8 6 3 3 5 5 6 4 5 7 11 16 18 18 17 16 15 8
6 6 7 17 20 21 18 10 15 15 9 8 8 8 7 7 7 6 6 6 8 7 5 4 5 5 6 6 5 6 6 6 7 9 13 15 15 11
7 6 8 18 20 21 17 18 23 19 7 6 7 7 6 6 6 5 6 7 8 9 8 7 6 7 8 8 7 5 5 6 6 6 5 10 11 13
8 14 18 21 20 15 18 23 19 8 5 6 7 7 6 6 5 5 6 6 7 9 11 9 8 7 7 8 7 6 6 6 5 5 5 5 4 4
9 13 19 20 16 16 16 12 7 6 6 6 6 6 5 5 5 5 5 5 5 6 7 9 8 8 7 8 8 8 6 5 5 6 5 4 4 4
10 7 6 7 6 6 7 7 5 5 5 4 5 5 5 5 5 4 4 4 5 6 6 5 5 6 7 7 7 7 7 6 5 5 4 4 4 4
14 7 8 7 8 7 6 5 4 4 4 4 5 5 5 6 6 5 5 5 6 6 5 5 4 4 4 4 6 6 5 5 5 5 4 4 4 4
10 7 8 7 7 6 5 5 5 4 4 4 5 5 6 5 5 6 5 5 5 5 5 4 3 3 4 5 5 3 3 4 5 4 3 3 4 5
6 7 7 7 6 6 5 5 5 4 4 4 4 5 5 5 5 6 5 5 6 5 5 4 3 3 4 4 4 4 6 5 4 4 3 3 4 6
6 7 7 6 6 5 5 5 5 5 5 4 4 5 5 5 6 6 5 9 7 5 5 5 4 5 3 2 4 4 4 5 5 3 3 3 3 3
7 7 6 6 6 5 5 5 5 5 5 4 4 5 5 5 6 6 6 5 5 5 5 4 4 3 2 3 5 5 5 4 5 7 6 4 2 2
7 6 6 6 6 5 5 6 6 5 5 4 4 5 5 5 5 5 5 5 5 5 5 4 3 2 3 4 4 5 5 4 3 3 4 6 5 6
Wind_Direction
221 229 234 238 238 238 235 227 248 283 287 271 278 291 306 301 300 299 294 300 302 304 304 304 304 303 302 301 300 299 298 296 295 293 290 288 286 284
218 226 239 241 241 239 237 237 231 251 275 267 268 279 293 298 301 308 307 305 305 304 302 301 302 302 302 301 300 299 298 296 294 292 291 289 288 286
231 232 242 242 244 245 243 243 245 247 271 279 267 277 286 291 298 299 301 300 298 300 300 299 300 301 302 302 302 300 299 297 295 293 292 291 289 288
239 242 250 253 252 250 249 250 252 251 264 282 285 281 281 284 285 288 298 299 296 298 299 300 300 301 302 303 302 301 300 298 296 295 293 291 290 288
242 248 254 256 261 261 259 259 260 267 266 279 287 284 282 283 288 289 286 288 293 297 299 299 299 299 301 302 302 302 301 300 297 294 292 291 289 288
251 251 254 254 258 262 265 262 264 269 273 278 285 288 285 281 282 287 291 281 284 293 294 295 297 299 300 301 301 302 301 300 297 294 293 292 290 287
257 255 256 258 261 266 268 262 259 266 273 278 283 288 287 286 281 281 289 289 279 276 281 287 292 290 293 295 297 297 296 297 296 295 294 293 291 289
256 259 260 263 268 274 276 278 275 272 273 274 281 282 283 280 281 283 287 292 291 267 279 290 288 287 287 288 293 296 298 299 298 298 298 297 295 292
257 263 270 270 276 266 274 279 280 280 281 281 281 281 283 281 280 281 278 281 285 284 291 290 284 285 288 296 301 303 304 303 303 303 303 301 299 297
258 263 267 269 268 274 263 262 258 265 273 277 271 273 276 275 269 275 280 282 279 277 275 285 290 288 295 295 300 303 306 310 310 308 307 306 304 302
259 263 268 268 278 284 281 272 271 268 281 284 285 287 290 293 294 291 287 291 293 289 268 272 289 297 292 288 297 309 315 317 318 317 314 311 310 311
262 264 275 282 287 289 283 274 278 277 276 281 284 287 288 289 293 287 276 281 287 288 276 289 295 311 301 282 297 313 314 313 317 318 318 318 317 316
264 265 270 288 291 292 291 282 282 288 283 281 283 280 279 276 274 270 258 259 274 277 282 298 289 291 284 295 296 292 296 301 308 310 315 316 318 320
269 267 273 289 291 292 293 290 292 296 291 290 288 284 284 283 279 273 266 258 256 265 274 275 277 283 289 291 293 295 303 301 299 296 300 314 320 325
278 285 291 294 296 295 292 293 294 290 280 280 281 281 277 276 285 284 279 273 271 269 273 265 264 272 276 284 291 294 305 302 297 304 309 311 306 314
291 290 293 294 293 291 291 293 283 269 274 271 277 279 283 284 284 281 283 287 287 288 278 268 263 266 276 278 283 291 294 294 308 309 306 305 305 305
293 286 281 283 277 275 276 275 269 273 284 277 284 289 288 290 287 282 278 284 282 289 297 293 275 266 263 269 278 283 291 296 298 306 311 310 304 310
300 289 286 283 284 284 283 281 273 269 270 276 283 285 284 286 288 288 282 280 281 283 286 292 301 310 308 286 255 273 288 297 307 309 310 309 309 316
298 288 285 285 284 281 279 276 272 269 269 270 274 279 283 282 284 286 285 285 283 281 281 284 289 297 307 306 300 272 290 303 309 310 310 307 303 308
283 286 287 287 285 281 278 275 273 272 268 269 270 274 277 282 285 285 283 282 284 284 289 288 277 269 270 281 287 290 293 287 299 307 311 310 300 307
287 286 286 287 284 279 277 272 267 266 268 267 268 270 271 274 278 279 280 290 291 283 284 281 270 284 274 289 290 289 296 301 296 290 302 312 316 324
287 286 286 285 282 276 274 273 268 267 266 259 264 268 269 268 272 273 275 279 279 277 277 278 278 283 280 278 285 293 300 310 316 317 309 291 287 319
284 284 283 283 280 278 272 265 263 264 258 255 261 268 271 272 272 269 271 274 276 277 278 284 285 271 270 272 278 286 291 299 309 319 316 314 302 291
Height
1516 1515 1513 1512 1510 1509 1507 1504 1501 1493 1487 1487 1486 1485 1484 1481 1478 1475 1472 1469 1465 1462 1458 1455 1451 1447 1444 1441 1438 1434 1431 1429 1426 1424 1422 1421 1419 1418
1511 1510 1509 1507 1505 1503 1502 1500 1497 1492 1484 1480 1480 1479 1477 1474 1472 1469 1465 1462 1459 1455 1452 1448 1444 1441 1437 1434 1430 1427 1424 1421 1418 1416 1414 1412 1411 1410
1506 1505 1503 1502 1500 1498 1496 1493 1491 1487 1480 1474 1474 1472 1470 1467 1464 1462 1458 1455 1451 1448 1444 1441 1437 1434 1430 1427 1423 1419 1416 1413 1410 1408 1406 1404 1402 1401
1501 1499 1498 1496 1494 1492 1489 1487 1484 1481 1476 1469 1466 1465 1463 1461 1457 1454 1451 1448 1444 1441 1437 1434 1431 1427 1423 1420 1416 1412 1409 1406 1403 1400 1398 1396 1394 1393
1495 1494 1492 1490 1487 1485 1483 1480 1477 1474 1471 1465 1459 1458 1455 1453 1450 1446 1443 1440 1437 1434 1431 1427 1424 1420 1417 1413 1409 1405 1402 1398 1395 1392 1390 1388 1386 1385
1489 1488 1486 1483 1481 1478 1476 1473 1470 1467 1464 1459 1454 1450 1448 1446 1443 1439 1435 1432 1429 1427 1424 1420 1417 1413 1410 1406 1402 1398 1394 1391 1387 1385 1383 1380 1379 1377
1483 1481 1479 1476 1474 1471 1469 1466 1463 1460 1456 1453 1448 1444 1440 1438 1436 1433 1428 1424 1421 1419 1415 1412 1409 1405 1401 1398 1394 1390 1387 1384 1381 1378 1376 1373 1371 1370
1475 1473 1471 1469 1466 1464 1462 1459 1457 1454 1450 1446 1442 1438 1434 1432 1429 1426 1422 1418 1412 1412 1408 1404 1402 1397 1394 1390 1386 1383 1380 1377 1374 1372 1369 1367 1365 1363
1468 1466 1463 1461 1459 1456 1453 1451 1449 1447 1445 1441 1436 1431 1428 1425 1423 1419 1416 1412 1407 1404 1402 1395 1394 1390 1387 1383 1380 1377 1374 1371 1368 1366 1363 1361 1359 1357
1461 1459 1456 1453 1451 1449 1445 1442 1440 1438 1436 1433 1429 1425 1422 1419 1416 1413 1409 1404 1400 1398 1396 1391 1387 1384 1380 1377 1374 1372 1369 1366 1363 1361 1358 1356 1354 1352
1454 1451 1449 1446 1444 1442 1438 1434 1431 1429 1427 1425 1422 1418 1415 1413 1411 1407 1402 1399 1393 1391 1390 1386 1381 1377 1374 1371 1369 1367 1364 1362 1359 1356 1354 1352 1349 1347
1446 1444 1442 1439 1437 1434 1431 1427 1423 1420 1418 1415 1413 1410 1407 1405 1403 1400 1397 1393 1389 1385 1384 1382 1377 1374 1368 1365 1364 1362 1359 1357 1355 1352 1350 1348 1346 1343
1438 1435 1434 1432 1429 1427 1424 1421 1417 1414 1410 1407 1404 1401 1399 1397 1395 1393 1391 1388 1385 1381 1379 1377 1373 1370 1367 1362 1358 1357 1355 1353 1351 1348 1346 1344 1342 1340
1431 1428 1425 1423 1421 1418 1416 1413 1410 1407 1404 1400 1397 1395 1392 1390 1388 1386 1384 1382 1380 1377 1374 1372 1369 1366 1363 1359 1356 1353 1351 1349 1347 1345 1343 1341 1339 1337
1424 1421 1418 1416 1413 1410 1407 1405 1403 1400 1397 1394 1391 1389 1386 1384 1382 1380 1378 1376 1374 1372 1370 1368 1365 1362 1360 1357 1353 1350 1348 1346 1344 1342 1340 1339 1337 1335
1416 1413 1410 1407 1405 1402 1399 1397 1395 1393 1390 1388 1385 1383 1381 1378 1376 1375 1373 1371 1368 1366 1365 1363 1361 1359 1356 1354 1351 1348 1346 1344 1342 1340 1338 1337 1335 1333
1408 1404 1402 1399 1396 1394 1392 1390 1388 1386 1384 1382 1380 1377 1375 1373 1371 1370 1369 1367 1364 1362 1360 1359 1357 1355 1353 1351 1348 1346 1344 1342 1340 1338 1336 1334 1333 1331
1402 1397 1395 1392 1390 1388 1386 1383 1382 1380 1378 1376 1374 1372 1370 1369 1367 1366 1364 1363 1361 1359 1357 1355 1353 1351 1350 1348 1347 1344 1342 1340 1338 1337 1335 1333 1331 1330
1395 1391 1389 1386 1384 1382 1380 1378 1376 1374 1373 1371 1369 1367 1366 1364 1363 1361 1360 1359 1357 1355 1354 1353 1351 1349 1347 1345 1344 1343 1341 1338 1337 1335 1334 1332 1330 1328
1388 1385 1383 1380 1378 1376 1374 1372 1370 1369 1367 1366 1364 1363 1361 1360 1359 1358 1356 1355 1353 1352 1351 1350 1349 1347 1346 1344 1342 1340 1339 1337 1336 1334 1333 1331 1329 1328
1382 1379 1377 1375 1372 1370 1368 1366 1365 1363 1362 1361 1359 1358 1357 1356 1355 1354 1352 1351 1350 1349 1348 1347 1346 1345 1343 1342 1340 1338 1337 1336 1335 1333 1332 1330 1328 1327
1375 1373 1371 1369 1366 1364 1363 1361 1359 1358 1357 1356 1354 1353 1352 1351 1350 1349 1349 1348 1347 1346 1344 1344 1343 1342 1340 1339 1337 1336 1335 1334 1333 1332 1331 1330 1329 1327
1369 1367 1365 1362 1360 1359 1357 1355 1354 1353 1352 1351 1350 1349 1348 1347 1346 1346 1345 1344 1343 1342 1341 1340 1340 1339 1337 1336 1335 1334 1333 1332 1331 1330 1330 1329 1328 1327